Weather History for Lamar, CO

Change the Weather History Date:

Wednesday, November 21, 2012

  Actual Average Record
Temperature  
Mean Temperature 51 °F 38 °F  
Max Temperature 77 °F 54 °F 77 °F (1932)
Min Temperature 24 °F 21 °F 5 °F (1973)
Degree Days  
Heating Degree Days 14 27  
Month to date heating degree days 380 483  
Since 1 July heating degree days 837 950  
Moisture  
Dew Point 15 °F    
Average Humidity 32    
Maximum Humidity 55    
Minimum Humidity 9    
Precipitation  
Precipitation 0.00 in 0.01 in 0.60 in (1992)
Month to date precipitation 0.13 0.32  
Year to date precipitation 6.06 14.74  
Sea Level Pressure  
Sea Level Pressure 29.90 in    
Wind  
Wind Speed 6 mph (WSW)    
Max Wind Speed 15 mph    
Max Gust Speed 16 mph    
Visibility 10 miles    
Events      
T = Trace of Precipitation, MM = Missing Value Source: NWS Daily Summary

Daily Weather History Graph

Daily Weather History Graph

Search for Another Location

Airport:

Trip Planner

Search our weather history database for the weather conditions in past years. The results will help you decide how hot, cold, wet, or windy it might be!

Date:

Astronomy

Nov. 21, 2012 Rise Set
Actual Time 6:38 AM MST 4:34 PM MST
Civil Twilight 6:10 AM MST 5:03 PM MST
Nautical Twilight 5:37 AM MST 5:35 PM MST
Astronomical Twilight 5:06 AM MST 6:06 PM MST
Moon 12:47 PM MST 12:05 AM MST
Length of Visible Light 10h 53m
Length of Day
9h 56m
Waxing Gibbous, 62% of the Moon is Illuminated
Nov 21
Waxing Gibbous
Nov 28
Full
Dec 6
Last Quarter
Dec 13
New
Dec 19
First Quarter

Hourly Weather History & Observations

Time (MST) Temp. Windchill Dew Point Humidity Pressure Visibility Wind Dir Wind Speed Gust Speed Precip Events Conditions
12:53 AM 37.9 °F 32.7 °F 14.0 °F 38% 30.01 in 10.0 mi WNW 6.9 mph - N/A   Clear
1:53 AM 36.0 °F 29.6 °F 14.0 °F 41% 30.01 in 10.0 mi SW 8.1 mph - N/A   Clear
2:53 AM 33.1 °F - 14.0 °F 46% 29.99 in 10.0 mi Calm Calm - N/A   Clear
3:53 AM 30.9 °F 24.3 °F 12.9 °F 47% 30.00 in 10.0 mi SSW 6.9 mph - N/A   Clear
4:53 AM 27.0 °F - 12.9 °F 56% 30.02 in 10.0 mi Calm Calm - N/A   Clear
5:53 AM 26.1 °F 20.5 °F 12.0 °F 55% 30.02 in 10.0 mi WSW 4.6 mph - N/A   Clear
6:53 AM 30.9 °F - 12.9 °F 47% 30.03 in 10.0 mi Calm Calm - N/A   Clear
7:53 AM 37.9 °F 32.1 °F 15.1 °F 39% 30.02 in 10.0 mi West 8.1 mph - N/A   Clear
8:53 AM 44.1 °F 40.1 °F 15.1 °F 31% 30.01 in 10.0 mi NW 6.9 mph - N/A   Clear
9:53 AM 51.1 °F - 16.0 °F 25% 29.98 in 10.0 mi West 3.5 mph - N/A   Clear
10:53 AM 60.1 °F - 17.1 °F 19% 29.92 in 10.0 mi NNW 4.6 mph - N/A   Clear
11:53 AM 70.0 °F - 18.0 °F 14% 29.86 in 10.0 mi Calm Calm - N/A   Clear
12:53 PM 73.0 °F - 17.1 °F 12% 29.84 in 10.0 mi Calm Calm - N/A   Clear
1:53 PM 75.9 °F - 14.0 °F 10% 29.80 in 10.0 mi Variable 3.5 mph - N/A   Clear
2:53 PM 75.9 °F - 15.1 °F 10% 29.79 in 10.0 mi Calm Calm - N/A   Clear
3:53 PM 71.1 °F - 16.0 °F 12% 29.79 in 10.0 mi ENE 5.8 mph - N/A   Clear
4:53 PM 61.0 °F - 15.1 °F 17% 29.81 in 10.0 mi ESE 6.9 mph - N/A   Clear
5:53 PM 52.0 °F - 7.0 °F 16% 29.83 in 10.0 mi South 10.4 mph - N/A   Clear
6:53 PM 52.0 °F - 5.0 °F 15% 29.83 in 10.0 mi SSW 13.8 mph - N/A   Clear
7:53 PM 53.1 °F - 12.9 °F 20% 29.82 in 10.0 mi WSW 6.9 mph - N/A   Clear
8:53 PM 44.1 °F 40.1 °F 21.9 °F 42% 29.83 in 10.0 mi WSW 6.9 mph - N/A   Clear
9:53 PM 39.9 °F 34.5 °F 21.9 °F 49% 29.82 in 10.0 mi WSW 8.1 mph - N/A   Clear
10:53 PM 42.1 °F 37.1 °F 21.0 °F 43% 29.79 in 10.0 mi SSW 8.1 mph - N/A   Clear
11:53 PM 37.9 °F 30.5 °F 17.1 °F 43% 29.77 in 10.0 mi SSW 11.5 mph - N/A   Clear